Location: Kalwaria Zebrzydowska
(49.8686°N, 19.6647°E)
Time: 16:22:35
(UTC+02:00)

ISS - Visible Passes

Search period start: 20 May 2019 00:00
Search period end: 30 May 2019 00:00
Orbit: 407 x 410 km, 51.6° (Epoch: 20 May)

Date Brightness Start Highest point End Pass type
(mag) Time Alt. Az. Time Alt. Az. Time Alt. Az.
20 May -3.7 01:17:08 10° WNW 01:20:27 77° NNE 01:23:46 10° E visible
20 May -3.2 02:53:51 10° W 02:56:53 34° SSW 02:59:54 10° SE visible
20 May -3.1 21:13:20 10° SW 21:16:20 33° SSE 21:19:22 10° E visible
20 May -3.7 22:49:27 10° W 22:52:46 77° NNW 22:56:05 10° ENE visible
21 May -3.5 00:26:13 10° WNW 00:29:31 66° N 00:31:55 17° E visible
21 May -2.4 02:02:51 10° WNW 02:04:30 26° W 02:04:30 26° W visible
21 May -3.9 21:58:32 10° WSW 22:01:50 84° SSE 22:05:10 10° ENE visible
21 May -3.3 23:35:16 10° W 23:38:33 61° N 23:41:34 12° E visible
22 May -3.1 01:11:54 10° WNW 01:14:14 41° W 01:14:14 41° W visible
22 May -3.8 21:07:41 10° WSW 21:10:57 61° SSE 21:14:13 10° ENE visible
22 May -3.3 22:44:17 10° W 22:47:34 63° N 22:50:52 10° ENE visible
23 May -3.9 00:20:58 10° WNW 00:24:18 85° NNE 00:24:34 74° E visible
23 May -3.5 21:53:17 10° W 21:56:35 70° N 21:59:53 10° ENE visible
23 May -3.6 23:30:01 10° WNW 23:33:20 70° N 23:35:03 26° E visible
24 May -1.7 01:06:41 10° W 01:07:45 18° W 01:07:45 18° W visible
24 May -3.4 22:39:03 10° WNW 22:42:21 63° N 22:45:36 10° E visible
25 May -3.3 00:15:41 10° WNW 00:18:18 48° WSW 00:18:18 48° WSW visible
25 May -3.3 21:48:02 10° W 21:51:20 61° N 21:54:37 10° E visible
25 May -3.9 23:24:42 10° WNW 23:28:02 84° SSW 23:28:54 46° ESE visible
26 May -3.7 22:33:44 10° WNW 22:37:03 77° NNE 22:39:32 17° E visible
27 May -2.2 00:10:26 10° W 00:12:14 25° WSW 00:12:14 25° WSW visible
27 May -3.4 21:42:44 10° WNW 21:46:02 66° N 21:49:19 10° E visible
27 May -3.6 23:19:21 10° WNW 23:22:34 50° SSW 23:22:53 48° S visible
28 May -3.9 22:28:20 10° WNW 22:31:38 72° SSW 22:33:33 23° ESE visible
29 May -1.4 00:05:29 10° W 00:06:16 14° WSW 00:06:16 14° WSW visible
29 May -3.8 21:37:19 10° WNW 21:40:38 86° NNE 21:43:56 10° ESE visible
29 May -2.6 23:14:07 10° W 23:16:56 27° SW 23:16:56 27° SW visible
